Weather in Vorozhba

Ukraine / Sumi District     50°42′50″N   34°38′01″E
temp.,
°C
wind,
m/s
gust,
m/s
humid.,
%
clouds,
%
prec.,
mm/h
press.,
hPa
HPBL,
m
11 may, tue
tue1100:00+10nne71464100 0.1 1020618
03:00+10n7156940 0.1 1019568
06:00+9n7167996 0.0 1018478
09:00+13nne8167411 0.0 1018656
12:00+18ne81167100 0.0 10171371
15:00+12ene61290100 0.6 1019811
18:00+10ne598619 0.3 1020522
21:00+8ene411835 0.3 1020327
12 may, wed
wed1200:00+7ene71386100 0.0 1020740
03:00+8e81378100 0.0 10201232
06:00+8e7138086 0.1 10201135
09:00+9ene71481100 0.1 10201110
12:00+10e71181100 0.2 10181100
15:00+10ene6985100 1.5 1017843
18:00+9ne599090 2.3 1015541
21:00+7ese369581 3.1 1014155
13 may, thu
thu1300:00+6se359824 1.1 101398
03:00+5sse4119636 1.1 1014304
06:00+5se3695100 0.0 1015154
09:00+11se468026 0.0 1015606
12:00+15s565997 0.0 10141491
15:00+17s46535 0.0 10141674
18:00+17s256427 0.0 10131205
21:00+12ese2286100 0.0 101318
14 may, fri
fri1400:00+12e3491100 0.0 101367
03:00+11e389698 0.8 1012158
06:00+12ese3997100 0.4 1011210
09:00+17se588649 1.5 1010495
12:00+20sse5775100 0.0 10101141
15:00+23s6863100 0.1 10091593
18:00+22s3673100 0.7 1009248
21:00+17sw22835 1.1 100911
15 may, sat
sat1500:00+15ssw228512 0.0 100911
03:00+13s228525 0.0 100911
06:00+13sse239098 0.0 100973
09:00+17ssw468379 0.6 1009487
12:00+20sw567048 0.4 10101238
15:00+20sw567074 2.9 10101195
18:00+18wsw477891 2.0 1010393
21:00+14wsw34935 2.9 101166